[[{"header":{"parameterUnit":"m.s-1","parameterCategory":1,"la1":30.2991,"la2":30.254,"lo1":-89.0895,"lo2":-89.0444,"dy":0.0017,"dx":0.0017,"nx":28,"ny":28,"refTime":"2024-02-06T09:00:00:Z","depth":0,"parameterNumber":2,"parameterNumberName":"U-component_of_WINDS"},"data":[0,0,0,0,0,0,0,0,0,0,0,0,0,0,0,0,0,0,0,0,0,0,0,0,0,0,0,0,0,0,0,0,0,0,0,0,0,0,0,0,0,0,0,0,0,0,0,0,0,0,0,0,0,0,0,0,0,0,1.4952,1.4953,0,1.5047,1.5048,1.5049,1.5035,1.5033,1.5031,1.503,1.5131,1.5135,1.5139,0,0,0,0,0,0,0,0,0,0,0,0,0,1.4764,1.4767,1.4952,1.4953,1.4954,1.5046,1.5048,1.5049,1.5035,1.5033,1.5031,1.5029,1.5129,1.5134,1.5139,0,0,0,0,0,0,0,0,0,0,0,0,0,1.4851,1.4769,1.4951,1.4958,1.4959,1.5046,1.5048,1.5049,1.5035,1.5033,1.503,1.5028,1.5128,1.5134,1.514,1.5227,0,0,1.5159,1.5162,0,0,0,0,0,0,0,0,1.4846,1.4858,1.4956,1.4958,1.4959,1.5026,1.5019,1.5109,1.5036,1.5007,1.503,1.5027,1.5098,1.5107,1.513,1.5232,1.5236,1.516,1.5164,1.5166,1.5168,0,0,0,0,0,0,0,1.484,1.4854,1.4989,1.4957,1.496,1.4958,1.4968,1.5036,1.5065,1.5009,1.5008,1.5019,1.5099,1.5124,1.5132,1.5238,1.516,1.5165,1.5169,1.5172,1.5421,1.5424,0,0,0,0,0,0,1.4831,1.4849,1.4986,1.4992,1.4895,1.4963,1.4974,1.5007,1.5064,1.507,1.5021,1.5018,1.5114,1.5125,1.5136,1.5245,1.5166,1.5172,1.5176,1.5418,1.5422,1.5425,0,0,0,0,0,0,1.4827,1.4844,1.4982,1.492,1.4938,1.4969,1.5006,1.501,1.5036,1.5073,1.5079,1.5041,1.5113,1.5127,1.5205,1.5248,1.5175,1.5181,1.5415,1.5419,1.5423,1.5462,0,0,0,0,0,0,1.4822,1.4842,1.4874,1.4921,1.4941,1.5049,1.5009,1.5014,1.5046,1.5043,1.5094,1.51,1.5112,1.5196,1.5212,1.5255,1.5186,1.5411,1.5417,1.5422,1.5457,1.5467,1.5475,0,0,0,0,0,1.4815,1.4881,1.4876,1.4893,1.4981,1.5051,1.5063,1.5075,1.5049,1.5083,1.5108,1.5098,1.524,1.5204,1.5222,1.5268,1.5409,1.5415,1.5421,1.5453,1.5465,1.5475,0,0,0,0,0,0,1.484,1.4887,1.4882,1.4965,1.5004,1.5049,1.5091,1.5086,1.5135,1.513,1.5143,1.5155,1.5236,1.5259,1.5218,1.5358,1.5321,1.5332,1.5339,1.5351,1.536,1.5354,1.5191,0,0,0,0,0,1.4854,1.4905,1.4945,1.5014,1.5034,1.5059,1.509,1.5096,1.5138,1.5154,1.5185,1.5227,1.5282,1.5317,1.5369,1.546,1.5473,1.55,1.551,1.5517,1.5526,1.558,1.5594,1.5446,1.5446,1.5446,0,0,1.4886,1.4918,1.495,1.502,1.5051,1.5106,1.5073,1.5132,1.5174,1.5164,1.524,1.5264,1.5313,1.5398,1.5438,1.5421,1.557,1.5525,1.5531,1.5536,1.5588,1.5602,1.5615,1.545,1.5449,1.5449,0,0,1.4971,1.5,1.5062,1.5094,1.5142,1.5158,1.5174,1.522,1.5235,1.5312,1.5307,1.5357,1.545,1.5486,1.5516,1.5618,1.5613,1.5635,1.5684,1.5736,1.5748,1.5758,1.5798,1.5812,1.5643,1.5644,1.5644,0,1.5005,1.5086,1.5095,1.5156,1.5188,1.5181,1.5246,1.5277,1.534,1.5364,1.5343,1.5462,1.5493,1.5589,1.5615,1.5638,1.5658,1.563,1.5745,1.5755,1.5765,1.5804,1.5818,1.5646,1.5646,1.5646,1.5645,0,1.5127,1.5183,1.5228,1.5289,1.5326,1.5388,1.541,1.5447,1.545,1.547,1.555,1.5588,1.5649,1.5672,1.5675,1.577,1.5758,1.5741,1.5706,1.5782,1.5819,1.5833,1.565,1.5649,1.5648,1.5648,0,0,1.523,1.5296,1.5313,1.5342,1.5395,1.544,1.5503,1.5562,1.5596,1.5639,1.5695,1.5775,1.576,1.5795,1.5802,1.5848,1.5931,1.5826,1.5827,1.5847,1.6042,1.6056,1.6073,1.5927,1.5929,1.5932,1.6039,0,1.5323,1.5434,1.5446,1.5546,1.56,1.5595,1.5651,1.5691,1.5712,1.5763,1.5786,1.5844,1.5818,1.584,1.5884,1.5911,1.5971,1.5903,1.5982,1.5985,1.5973,1.6091,1.6106,1.6206,1.6053,1.6055,1.6057,0,1.5447,1.5494,1.56,1.5648,1.5672,1.5721,1.5778,1.5826,1.5872,1.5885,1.5924,1.5927,1.5995,1.5956,1.6052,1.6006,1.6039,1.6058,1.6062,1.6072,1.6027,1.6107,1.6237,1.6253,1.6079,1.6077,1.6075,0,1.5516,1.5606,1.5682,1.5706,1.5764,1.58,1.5825,1.5869,1.5905,1.5956,1.598,1.6037,1.607,1.6116,1.6135,1.6104,1.6232,1.6193,1.6247,1.6247,1.6276,1.6274,1.6416,1.6292,1.6292,1.6292,1.6291,0,1.562,1.5686,1.5714,1.5761,1.5836,1.5849,1.5924,1.5948,1.5988,1.6041,1.604,1.6091,1.6112,1.6167,1.6182,1.6262,1.6276,1.629,1.6294,1.6292,1.629,1.6315,1.631,1.6296,1.6295,1.6294,1.6293,0,1.5711,1.5732,1.5815,1.5863,1.5876,1.593,1.5972,1.6019,1.6039,1.6107,1.6124,1.6157,1.6222,1.6245,1.6323,1.6334,1.6428,1.6424,1.6412,1.6414,1.6468,1.6464,1.6633,1.6657,1.6515,1.6516,1.6517,0,1.5777,1.5828,1.5882,1.5917,1.5944,1.6001,1.6038,1.6054,1.6093,1.6152,1.6192,1.6257,1.6309,1.6414,1.6446,1.6507,1.6507,1.6562,1.6516,1.6514,1.6512,1.651,1.6517,1.6571,1.6573,1.6574,1.6575,0,1.5895,1.5903,1.5956,1.6013,1.6057,1.6103,1.6148,1.6178,1.6201,1.6245,1.6311,1.6352,1.6433,1.6499,1.6562,1.6591,1.6589,1.6589,1.6605,1.6605,1.6597,1.6606,1.6439,1.6585,1.6584,1.6584,1.6583,1.6583,1.5978,1.6024,1.6069,1.6129,1.6164,1.6207,1.6254,1.6281,1.6336,1.6403,1.6409,1.6481,1.653,1.6615,1.6647,1.6705,1.669,1.6713,1.672,1.6726,1.6732,1.6586,1.6716,1.6716,1.6716,1.6716,1.6715,0,1.6098,1.6127,1.6182,1.6245,1.6293,1.6284,1.6334,1.6376,1.6439,1.6483,1.6535,1.6613,1.6677,1.6715,1.678,1.682,1.6821,1.6837,1.6835,1.6843,1.6739,1.672,1.6835,1.6835,1.6835,1.6835,1.6835,1.6835,1.6166,1.6245,1.6259,1.6356,1.6386,1.6456,1.6486,1.6526,1.6562,1.6649,1.6702,1.6726,1.6769,1.6837,1.6897,1.6907,1.6932,1.695,1.6959,1.6862,1.685,1.6838,1.682,1.6955,1.6955,1.7058,1.7059,1.706]},{"header":{"parameterUnit":"m.s-1","parameterCategory":1,"la1":30.2991,"la2":30.254,"lo1":-89.0895,"lo2":-89.0444,"dy":0.0017,"dx":0.0017,"nx":28,"ny":28,"refTime":"2024-02-06T09:00:00:Z","depth":0,"parameterNumber":3,"parameterNumberName":"V-component_of_WINDS"},"data":[0,0,0,0,0,0,0,0,0,0,0,0,0,0,0,0,0,0,0,0,0,0,0,0,0,0,0,0,0,0,0,0,0,0,0,0,0,0,0,0,0,0,0,0,0,0,0,0,0,0,0,0,0,0,0,0,0,0,-2.5366,-2.5365,0,-2.53,-2.5299,-2.5298,-2.5351,-2.5353,-2.5356,-2.5358,-2.5285,-2.5281,-2.5277,0,0,0,0,0,0,0,0,0,0,0,0,0,-2.5534,-2.5531,-2.5366,-2.5365,-2.5365,-2.53,-2.5299,-2.5298,-2.5351,-2.5354,-2.5356,-2.5359,-2.5286,-2.5281,-2.5276,0,0,0,0,0,0,0,0,0,0,0,0,0,-2.5463,-2.5529,-2.5366,-2.5383,-2.5384,-2.53,-2.5299,-2.5298,-2.535,-2.5354,-2.5357,-2.536,-2.5287,-2.5282,-2.5276,-2.517,0,0,-2.5257,-2.5254,0,0,0,0,0,0,0,0,-2.5467,-2.5457,-2.5381,-2.5382,-2.5383,-2.5337,-2.5331,-2.5255,-2.5349,-2.5363,-2.5358,-2.5362,-2.5299,-2.5292,-2.5272,-2.5167,-2.5163,-2.5256,-2.5253,-2.525,-2.5248,0,0,0,0,0,0,0,-2.5472,-2.546,-2.534,-2.538,-2.5381,-2.5393,-2.5386,-2.5317,-2.5312,-2.5362,-2.5366,-2.5357,-2.53,-2.5278,-2.5271,-2.5162,-2.5257,-2.5251,-2.5247,-2.5245,-2.4968,-2.4964,0,0,0,0,0,0,-2.5476,-2.5464,-2.5342,-2.5338,-2.5434,-2.5387,-2.538,-2.5348,-2.5313,-2.5311,-2.5354,-2.536,-2.5287,-2.5278,-2.5268,-2.5143,-2.525,-2.5244,-2.5241,-2.4971,-2.4967,-2.4963,0,0,0,0,0,0,-2.548,-2.5465,-2.5345,-2.5402,-2.5388,-2.538,-2.5345,-2.5345,-2.5323,-2.5308,-2.5307,-2.5333,-2.5289,-2.5277,-2.5195,-2.5141,-2.5242,-2.5236,-2.4976,-2.497,-2.4965,-2.4891,0,0,0,0,0,0,-2.5484,-2.5466,-2.5426,-2.5401,-2.5384,-2.5273,-2.5341,-2.5342,-2.5313,-2.532,-2.5288,-2.5285,-2.5291,-2.5203,-2.5189,-2.5134,-2.5231,-2.498,-2.4973,-2.4967,-2.4898,-2.4883,-2.4871,0,0,0,0,0,-2.549,-2.5407,-2.5424,-2.5409,-2.5335,-2.527,-2.526,-2.5269,-2.5309,-2.5269,-2.5259,-2.5286,-2.515,-2.5195,-2.5178,-2.5121,-2.4984,-2.4975,-2.4967,-2.4904,-2.4886,-2.4871,0,0,0,0,0,0,-2.5424,-2.5404,-2.5423,-2.5329,-2.5301,-2.5279,-2.5228,-2.525,-2.5209,-2.5216,-2.5228,-2.5221,-2.5134,-2.512,-2.517,-2.5018,-2.5073,-2.5061,-2.503,-2.5013,-2.5,-2.5005,-2.5226,0,0,0,0,0,-2.5399,-2.5349,-2.5333,-2.5252,-2.5237,-2.5235,-2.5207,-2.5217,-2.5187,-2.5175,-2.5159,-2.5128,-2.5079,-2.5045,-2.4999,-2.4897,-2.489,-2.4849,-2.4836,-2.4825,-2.4814,-2.4759,-2.4741,-2.4935,-2.4935,-2.4936,0,0,-2.5345,-2.5328,-2.5295,-2.5238,-2.5218,-2.5164,-2.5224,-2.5165,-2.5125,-2.5165,-2.5087,-2.5075,-2.5041,-2.4948,-2.4907,-2.4934,-2.4759,-2.4814,-2.4806,-2.48,-2.4749,-2.473,-2.4714,-2.493,-2.4931,-2.4932,0,0,-2.5221,-2.5203,-2.5134,-2.5113,-2.5082,-2.5081,-2.5065,-2.504,-2.5033,-2.4956,-2.4985,-2.4937,-2.4851,-2.4826,-2.4802,-2.467,-2.4694,-2.4655,-2.4583,-2.453,-2.4515,-2.4501,-2.4454,-2.4437,-2.4644,-2.4644,-2.4644,0,-2.5158,-2.508,-2.5095,-2.5034,-2.5008,-2.5045,-2.4974,-2.4952,-2.4906,-2.4887,-2.4918,-2.4812,-2.4792,-2.4694,-2.4662,-2.4642,-2.4622,-2.4658,-2.4516,-2.4502,-2.449,-2.4445,-2.4427,-2.4639,-2.464,-2.464,-2.4641,0,-2.5004,-2.495,-2.4897,-2.4855,-2.4823,-2.4757,-2.4761,-2.4727,-2.474,-2.4736,-2.4656,-2.4634,-2.4583,-2.4561,-2.4572,-2.4465,-2.4483,-2.4515,-2.457,-2.4467,-2.4424,-2.4407,-2.4633,-2.4634,-2.4636,-2.4637,0,0,-2.4834,-2.4803,-2.4783,-2.4764,-2.4734,-2.4691,-2.4628,-2.4581,-2.4551,-2.4518,-2.4464,-2.4392,-2.4422,-2.4394,-2.4404,-2.4357,-2.4254,-2.4395,-2.4394,-2.4369,-2.4134,-2.4109,-2.4089,-2.427,-2.4267,-2.4264,-2.4136,0,-2.4708,-2.4599,-2.4611,-2.4506,-2.4456,-2.4491,-2.4435,-2.4409,-2.4404,-2.436,-2.4354,-2.4302,-2.4346,-2.433,-2.4285,-2.4276,-2.4206,-2.4285,-2.4218,-2.4216,-2.4225,-2.4067,-2.4041,-2.3921,-2.412,-2.4117,-2.4115,0,-2.4546,-2.451,-2.4401,-2.4379,-2.4359,-2.4308,-2.4267,-2.4225,-2.4196,-2.4196,-2.4167,-2.4184,-2.4119,-2.4177,-2.4087,-2.414,-2.4114,-2.4105,-2.4101,-2.4094,-2.4158,-2.4055,-2.3883,-2.3865,-2.4089,-2.4092,-2.4093,0,-2.4432,-2.4357,-2.4282,-2.4265,-2.4238,-2.4202,-2.4189,-2.4164,-2.4136,-2.4099,-2.408,-2.4036,-2.4011,-2.3975,-2.398,-2.4022,-2.3888,-2.3947,-2.3885,-2.3885,-2.3854,-2.3856,-2.3675,-2.3839,-2.3839,-2.3839,-2.384,0,-2.4289,-2.422,-2.4231,-2.4184,-2.4109,-2.4123,-2.4047,-2.4038,-2.4017,-2.3968,-2.3996,-2.395,-2.3959,-2.3913,-2.3917,-2.3841,-2.383,-2.3827,-2.3828,-2.3824,-2.3824,-2.3806,-2.3814,-2.3834,-2.3835,-2.3836,-2.3837,0,-2.4148,-2.4153,-2.4073,-2.4055,-2.4049,-2.3994,-2.3978,-2.3934,-2.3932,-2.3871,-2.3857,-2.3853,-2.3801,-2.3803,-2.3742,-2.3745,-2.3652,-2.3663,-2.3662,-2.3664,-2.3602,-2.3608,-2.3402,-2.3376,-2.3557,-2.3556,-2.3554,0,-2.4056,-2.4005,-2.3982,-2.3953,-2.3938,-2.3891,-2.3862,-2.3875,-2.3844,-2.3809,-2.3769,-2.3719,-2.368,-2.3594,-2.3585,-2.3539,-2.3549,-2.348,-2.3542,-2.354,-2.3547,-2.355,-2.3545,-2.3468,-2.3466,-2.3464,-2.3463,0,-2.3893,-2.3898,-2.3857,-2.3817,-2.3783,-2.3752,-2.3723,-2.3697,-2.3707,-2.367,-2.3618,-2.3588,-2.3528,-2.3477,-2.3434,-2.3419,-2.3441,-2.3444,-2.3427,-2.3421,-2.3422,-2.342,-2.3628,-2.3448,-2.3449,-2.345,-2.3451,-2.3452,-2.3773,-2.3729,-2.3707,-2.3661,-2.3642,-2.3614,-2.3573,-2.3567,-2.3524,-2.3477,-2.3487,-2.3428,-2.3402,-2.3346,-2.3327,-2.3281,-2.3305,-2.3281,-2.3274,-2.3268,-2.3261,-2.3431,-2.3273,-2.3273,-2.3274,-2.3274,-2.3274,0,-2.361,-2.3599,-2.3556,-2.3517,-2.348,-2.3508,-2.3478,-2.3445,-2.3393,-2.3368,-2.333,-2.327,-2.3222,-2.321,-2.3164,-2.3129,-2.3138,-2.3116,-2.3118,-2.3115,-2.3242,-2.3261,-2.311,-2.311,-2.311,-2.311,-2.311,-2.311,-2.3521,-2.3449,-2.3452,-2.337,-2.3358,-2.3303,-2.3283,-2.3258,-2.3238,-2.3171,-2.3132,-2.3126,-2.3106,-2.3059,-2.3016,-2.3014,-2.2995,-2.2969,-2.297,-2.3089,-2.3106,-2.3121,-2.3139,-2.2965,-2.2964,-2.2847,-2.2846,-2.2845]}]]